Temperature
10 11 11 11 12 12 12 13 12 12 13 14 14 13 14 16 16 16 17 17 17 17 17 16 16 15 15 14 14 13 12 12 12 11 11 10 10 10 9 9 9 9 8 8
10 10 11 11 12 12 13 13 13 12 12 13 14 14 14 15 15 15 17 17 17 17 17 16 16 16 15 14 14 13 12 12 11 11 10 10 10 9 9 9 9 8 8 8
9 10 10 11 12 12 13 13 13 13 14 13 13 13 14 15 16 16 17 17 17 17 17 17 16 16 15 15 13 13 12 12 11 10 10 10 9 9 9 8 8 8 8 7
8 9 9 11 12 13 13 13 13 13 13 13 14 15 17 17 17 17 17 17 17 17 17 16 16 15 15 14 13 12 12 11 11 10 9 9 9 8 8 8 8 8 7 7
7 9 9 10 11 12 12 12 13 13 13 13 15 14 15 17 17 18 18 18 17 17 17 16 16 15 14 14 13 12 11 11 10 10 9 9 8 8 8 7 7 7 7 6
6 8 9 11 11 11 12 12 12 12 12 12 12 12 14 16 17 17 17 17 17 16 16 15 15 14 14 13 12 12 11 11 10 9 9 8 8 7 7 7 7 6 6 6
6 8 9 10 10 11 11 12 13 13 13 12 12 14 16 16 16 17 16 16 16 16 15 15 14 14 13 12 12 11 11 10 9 9 8 8 7 7 6 6 6 5 5 5
7 7 8 10 10 11 12 13 14 14 14 14 14 15 15 15 16 16 16 15 15 15 14 14 13 13 12 12 11 11 10 9 9 8 8 7 7 6 6 5 5 5 4 4
8 9 10 10 11 13 14 14 15 15 15 15 14 14 14 15 15 15 15 15 14 14 14 13 12 12 12 11 10 10 9 9 8 8 7 7 6 6 5 5 4 4 4 3
7 8 9 11 12 13 14 15 15 16 16 15 14 14 14 14 14 14 14 14 14 13 13 12 12 11 11 10 10 9 9 8 7 7 7 6 5 5 4 4 4 3 3 3
7 8 9 10 12 13 13 14 15 15 15 15 15 14 14 13 13 13 13 13 13 12 12 11 11 10 10 9 9 8 8 7 7 6 6 5 5 4 4 3 3 2 2 2
8 8 8 9 12 13 13 14 14 14 14 14 15 14 13 13 13 13 12 12 12 11 11 11 10 10 9 8 8 8 7 7 6 6 5 5 4 4 3 3 2 2 1 1
9 10 11 11 12 12 13 14 14 14 14 14 14 14 13 12 12 12 12 11 11 11 10 10 9 9 8 8 7 7 7 6 6 5 4 4 3 3 2 2 2 1 1 0
10 10 9 10 11 12 13 13 13 13 13 13 13 12 12 12 11 11 11 10 10 10 9 9 8 8 7 7 6 6 6 5 5 4 4 3 3 2 2 1 1 1 0 -0
9 10 10 11 11 12 12 12 12 12 12 11 12 12 12 11 11 10 10 9 9 9 8 8 7 7 6 6 5 5 5 4 4 3 3 2 2 1 1 0 -0 -0 -1 -1
8 9 10 10 11 11 11 11 11 11 11 11 11 11 11 10 10 9 9 8 8 8 7 7 6 6 5 5 4 4 4 3 3 2 2 1 1 0 -0 -1 -1 -1 -2 -2
7 7 8 8 9 10 10 11 11 11 10 10 10 10 9 9 9 8 7 7 7 7 6 6 5 5 4 4 4 3 3 3 2 2 1 1 0 -0 -1 -1 -2 -2 -3 -3
8 9 10 10 10 10 10 10 10 10 10 9 9 9 8 8 8 7 7 6 6 5 5 4 4 4 3 3 3 2 2 2 1 1 0 -0 -1 -1 -2 -2 -3 -3 -3 -4
8 8 9 9 10 10 9 9 9 9 9 8 8 8 7 7 7 6 6 5 5 5 4 3 3 3 2 2 2 2 1 1 0 -0 -1 -1 -2 -2 -3 -3 -4 -4 -4 -5
7 7 8 8 8 8 8 8 8 8 7 7 7 6 6 6 5 5 4 4 4 4 3 3 2 2 2 1 1 0 0 -0 -1 -1 -2 -2 -3 -3 -4 -4 -4 -5 -5 -5
6 6 6 6 6 6 7 7 7 6 6 6 6 6 5 4 4 4 3 3 2 2 2 1 1 1 1 0 -0 -1 -1 -1 -2 -2 -3 -3 -4 -4 -4 -5 -5 -5 -6 -6
4 5 5 5 5 4 4 5 5 5 5 4 4 4 4 3 2 2 2 2 1 1 1 0 0 -0 -0 -1 -1 -2 -2 -3 -3 -3 -4 -4 -5 -5 -5 -5 -6 -6 -6 -6
3 3 3 3 3 3 3 3 3 3 3 3 3 3 3 2 1 1 1 0 -0 -0 -0 -1 -1 -1 -2 -2 -2 -3 -3 -3 -4 -4 -5 -5 -5 -5 -6 -6 -6 -6 -7 -7
1 2 2 1 2 1 1 0 1 1 1 1 1 1 1 0 -0 -0 -1 -1 -1 -1 -2 -2 -2 -2 -3 -3 -3 -4 -4 -4 -5 -5 -5 -5 -6 -6 -6 -7 -7 -7 -7 -7
-1 -1 -1 -1 -0 -1 -1 -1 -1 -1 -0 -1 -1 -1 -1 -1 -1 -2 -2 -2 -2 -2 -3 -3 -3 -4 -4 -4 -4 -5 -5 -5 -5 -6 -6 -6 -6 -7 -7 -7 -7 -7 -7 -8
-3 -3 -3 -2 -2 -2 -2 -2 -2 -2 -2 -2 -3 -3 -3 -3 -2 -3 -3 -3 -3 -3 -4 -4 -4 -4 -5 -5 -5 -5 -5 -6 -6 -6 -6 -7 -7 -7 -7 -7 -8 -8 -8 -8
-5 -4 -4 -4 -4 -4 -3 -3 -3 -3 -3 -3 -3 -4 -4 -3 -3 -4 -4 -4 -4 -4 -4 -5 -5 -5 -5 -5 -6 -6 -6 -6 -7 -7 -7 -7 -7 -8 -8 -8 -8 -8 -8 -8
Wind_Speed
10 7 12 11 17 19 18 19 17 17 16 14 11 11 11 9 8 8 8 9 10 10 9 9 8 8 9 8 8 9 10 10 10 9 8 8 8 9 9 10 10 10 9 9
12 10 11 10 18 23 24 22 20 13 15 12 10 8 8 9 10 11 11 11 11 11 10 10 10 10 9 9 9 9 10 10 8 8 8 8 9 9 9 8 8 8 9 9
11 10 8 15 21 24 20 19 20 23 23 8 10 13 14 13 13 13 13 12 12 12 12 11 11 11 11 10 9 9 9 8 8 9 8 8 8 8 8 8 7 8 8 7
5 8 14 13 12 15 20 20 18 17 13 13 15 14 12 13 15 14 13 12 11 10 10 9 8 8 8 8 9 9 8 8 8 8 8 7 8 8 7 6 7 7 7 7
6 10 9 7 8 16 18 20 18 19 15 11 9 7 9 11 13 15 14 11 11 10 9 8 8 9 9 8 8 8 9 8 8 9 8 8 8 7 6 5 5 5 5 6
6 8 12 11 8 8 10 15 14 16 17 13 10 11 14 10 10 10 9 8 8 7 7 7 7 9 10 9 9 9 9 8 8 8 9 8 8 6 5 5 5 5 4 5
8 7 9 7 6 12 13 14 10 16 16 15 16 16 10 9 8 9 9 8 8 9 8 7 8 10 10 9 9 8 7 7 7 7 7 7 6 5 5 4 4 4 4 3
9 8 10 5 10 13 10 4 6 11 14 15 15 10 8 10 10 10 9 8 9 9 7 6 8 10 9 8 7 7 7 7 6 6 5 5 6 5 5 5 4 3 3 3
9 9 5 6 8 8 5 6 7 7 9 11 10 8 8 9 10 10 10 9 8 10 8 6 6 9 9 7 7 8 8 7 6 6 5 5 6 6 4 4 4 3 3 3
6 8 8 8 6 4 5 5 5 6 7 9 9 10 9 10 10 9 8 8 8 10 10 7 6 7 7 7 8 9 8 7 6 6 5 4 4 4 4 4 4 3 3 4
7 7 5 7 7 6 4 3 2 3 5 9 11 10 10 10 10 10 8 7 8 10 10 8 7 7 7 8 9 9 8 6 6 5 5 4 3 3 4 4 5 5 5 4
9 6 5 8 8 6 5 5 6 5 4 5 10 11 10 10 9 9 10 9 9 9 9 8 8 7 6 7 9 9 7 6 5 4 4 3 3 1 1 1 2 3 3 3
9 7 7 8 7 6 7 7 6 6 9 8 6 10 11 8 8 9 10 10 10 9 9 8 8 7 6 7 8 8 7 6 5 4 4 3 3 2 1 2 2 2 3 4
7 5 7 8 8 7 5 4 4 4 5 7 7 9 10 9 9 10 10 9 9 10 9 8 8 6 6 7 8 7 7 6 5 4 4 3 3 2 2 2 2 3 4 5
8 8 9 7 5 4 3 5 7 6 6 6 7 10 11 11 11 9 8 9 10 10 9 8 8 6 5 7 8 7 6 4 4 4 3 3 2 2 2 2 2 3 3 4
6 5 5 5 6 5 6 7 8 8 8 8 8 9 9 10 10 10 9 10 10 9 8 8 7 6 6 7 7 6 5 6 5 4 3 2 2 2 2 2 3 3 4 4
5 5 5 5 6 6 6 7 9 10 9 9 10 11 12 12 11 10 8 7 8 7 7 7 6 6 6 7 6 5 4 4 4 3 2 2 2 3 3 3 3 4 4 5
8 9 9 10 9 8 6 6 8 10 9 9 11 12 12 12 12 11 10 9 9 8 6 5 6 6 6 6 5 4 4 3 3 2 2 2 2 2 3 3 4 5 4 5
5 5 5 5 7 8 8 8 9 9 10 11 12 11 10 10 10 11 10 10 10 8 4 5 8 6 5 5 5 4 4 3 2 2 2 2 2 2 3 3 4 5 5 5
3 3 4 5 5 7 8 8 10 10 10 11 12 12 11 10 10 10 9 7 4 4 6 6 6 5 4 4 4 3 3 3 2 2 2 2 2 3 3 4 5 5 5 5
4 6 7 8 8 8 8 9 11 11 10 10 12 12 12 10 9 9 9 7 3 5 6 7 5 4 3 3 4 3 3 2 2 2 2 2 3 3 4 4 5 6 6 6
6 7 8 9 10 10 8 8 10 11 11 11 11 12 12 11 9 8 6 5 5 7 5 4 3 4 4 3 3 2 2 2 2 2 2 3 3 4 5 5 6 6 6 6
7 8 9 10 11 11 11 10 10 11 12 12 11 11 11 9 7 7 6 4 4 7 5 3 4 4 3 2 2 2 1 1 2 2 3 3 4 5 5 6 6 6 6 7
10 10 10 10 12 14 13 11 11 11 12 12 10 10 10 9 6 5 5 7 7 7 4 4 4 3 3 2 1 1 1 2 2 3 4 4 4 5 6 6 7 7 7 8
11 12 12 12 12 11 12 13 13 13 13 11 11 10 7 6 6 6 5 5 7 6 4 3 4 3 2 1 0 1 2 3 3 4 4 4 5 6 6 7 7 8 8 8
11 10 10 10 10 9 9 9 10 9 10 10 8 7 7 7 7 6 5 5 5 5 3 2 2 2 1 1 1 2 3 4 5 4 5 6 6 7 7 8 9 8 8 8
11 10 10 10 9 8 8 9 9 9 8 8 8 6 6 6 6 5 5 4 3 3 2 1 1 1 1 2 2 3 4 4 5 5 6 6 7 7 8 9 9 9 9 9
Wind_Direction
227 208 184 204 205 200 205 210 215 223 220 222 217 213 214 211 202 197 204 205 203 202 202 198 196 197 196 195 189 182 183 190 196 191 186 181 181 182 182 185 188 188 190 195
227 218 198 210 208 207 214 217 223 226 234 220 217 217 217 212 203 205 210 210 207 204 199 199 199 197 194 193 187 180 186 192 187 179 178 179 180 178 178 182 183 182 190 193
219 211 205 222 210 207 214 219 216 226 233 203 205 212 217 215 209 207 208 207 205 202 201 201 199 193 193 190 176 177 185 184 179 176 178 179 175 174 180 183 181 188 194 195
199 185 216 232 205 201 215 224 218 225 227 206 213 218 218 212 205 209 207 203 202 200 199 199 190 183 176 165 166 173 177 176 173 171 173 170 169 177 180 179 185 191 197 200
198 206 236 261 206 194 204 229 222 226 230 218 212 217 241 220 206 206 204 199 198 195 191 181 176 170 157 159 163 169 176 177 175 171 169 169 175 180 176 175 185 191 192 195
199 202 219 230 205 182 181 240 226 217 223 214 181 213 236 211 197 197 190 185 182 172 163 163 167 154 152 160 164 177 181 176 168 166 168 174 178 174 166 172 182 181 191 197
208 214 246 238 168 139 181 231 215 208 215 203 201 219 219 178 184 181 175 172 163 152 156 167 155 147 154 160 177 180 162 151 153 160 165 166 160 156 156 159 162 176 195 211
196 208 238 211 152 178 212 206 195 201 206 205 215 213 184 173 172 165 160 158 151 145 148 149 147 148 153 169 170 144 137 140 147 151 149 144 145 148 150 153 163 181 196 229
202 217 240 191 200 213 190 198 205 203 207 197 195 191 180 174 168 163 159 156 149 144 139 133 143 149 155 162 140 132 132 138 141 137 136 141 148 151 150 156 169 189 198 226
225 240 243 243 244 232 213 218 217 202 186 173 176 172 166 162 159 156 153 150 144 139 139 140 140 140 147 140 135 133 137 139 139 138 136 135 142 151 159 172 182 195 210 229
236 250 253 255 243 235 244 241 206 173 180 172 159 161 163 161 161 156 148 143 143 145 146 146 138 132 132 135 135 133 135 136 135 136 141 143 146 165 176 193 192 198 212 211
228 219 210 243 247 233 217 217 193 166 160 166 161 158 155 157 156 149 144 139 136 137 138 138 135 133 134 137 137 137 137 139 140 140 140 141 140 93 9 233 239 238 242 242
233 238 242 253 250 229 216 210 195 175 168 163 158 151 147 144 145 140 139 142 145 143 139 135 133 135 137 136 135 138 143 145 142 142 146 148 152 161 247 337 333 292 283 279
240 235 250 246 241 234 218 194 160 133 139 146 144 137 134 129 135 140 145 144 136 131 130 132 132 135 136 132 130 132 134 139 142 147 152 157 166 177 191 220 281 296 300 300
246 238 236 238 220 198 167 142 133 136 130 124 133 139 140 141 145 142 132 126 123 124 127 130 132 134 129 128 129 131 132 137 138 142 147 155 162 175 198 218 243 273 295 305
251 250 222 202 191 177 161 157 156 157 150 142 140 138 133 129 126 124 125 131 135 141 142 138 138 138 129 127 126 125 129 137 138 141 146 153 169 192 214 228 244 258 268 276
213 216 208 203 193 183 182 179 168 160 152 147 142 132 125 122 121 122 120 118 119 123 127 131 132 127 125 128 130 133 133 139 136 135 159 180 196 213 222 230 243 256 264 273
223 220 208 195 188 179 171 159 151 149 148 142 134 133 136 139 141 137 129 119 110 101 100 115 122 122 124 128 130 134 137 143 153 166 180 196 214 220 226 237 247 259 271 280
228 214 201 185 175 164 156 150 144 136 133 136 137 137 133 131 130 130 128 126 128 129 130 127 128 121 124 134 130 133 140 148 160 176 192 229 254 237 242 248 256 262 269 275
181 160 136 128 129 134 137 136 131 128 130 131 128 125 122 124 126 126 121 113 116 133 136 132 125 126 128 137 129 139 150 162 176 194 210 221 237 250 255 261 264 267 270 272
134 123 119 115 108 106 119 128 130 129 128 129 131 131 128 123 122 123 122 117 107 121 128 128 123 129 133 145 135 144 157 172 187 204 221 236 248 256 261 265 268 272 272 273
117 116 113 114 112 106 100 105 115 119 118 115 116 120 120 119 114 103 95 121 133 128 117 116 124 137 149 137 135 148 165 185 204 220 233 242 249 257 263 266 267 271 271 270
107 109 107 108 110 106 95 94 100 108 111 115 119 121 120 120 120 121 115 115 121 120 112 121 137 136 124 109 130 147 173 206 231 240 244 248 252 257 263 268 269 270 269 269
97 97 99 103 105 103 99 94 93 95 96 94 94 102 110 109 91 80 108 121 118 107 104 117 113 106 87 98 120 154 211 240 249 254 256 258 259 262 265 268 270 270 270 270
95 97 100 103 101 102 104 103 98 94 92 89 84 78 77 88 104 106 101 106 110 98 93 92 80 65 65 90 168 242 252 255 257 260 256 262 265 268 269 270 270 271 271 271
91 92 90 89 96 104 107 106 104 101 101 97 87 79 80 83 90 92 92 91 93 88 81 66 52 41 32 290 272 270 268 279 289 282 268 269 269 269 270 270 269 270 270 270
85 87 90 88 85 88 94 97 99 98 99 103 100 90 88 88 88 87 85 83 78 73 64 43 15 339 308 293 285 280 276 273 271 270 270 270 270 270 270 269 271 271 271 271
Height
1394 1394 1396 1400 1402 1406 1409 1408 1414 1410 1411 1406 1405 1406 1406 1407 1410 1412 1414 1416 1418 1420 1422 1424 1426 1429 1431 1433 1435 1438 1440 1443 1446 1449 1453 1456 1459 1462 1465 1468 1471 1474 1476 1478
1393 1391 1391 1394 1393 1396 1397 1398 1401 1403 1402 1396 1398 1401 1403 1405 1407 1409 1410 1412 1414 1416 1418 1420 1422 1424 1427 1429 1431 1434 1436 1438 1442 1445 1448 1451 1455 1458 1461 1463 1466 1468 1470 1472
1390 1389 1390 1389 1381 1384 1387 1386 1390 1393 1387 1391 1395 1396 1397 1399 1401 1403 1405 1408 1410 1412 1414 1416 1418 1420 1422 1425 1427 1430 1432 1435 1438 1441 1444 1447 1450 1453 1456 1458 1461 1463 1464 1466
1391 1390 1392 1373 1367 1372 1376 1376 1378 1379 1379 1383 1386 1388 1390 1393 1395 1397 1400 1403 1405 1408 1410 1412 1415 1417 1419 1422 1424 1426 1428 1431 1434 1437 1440 1443 1446 1449 1451 1454 1456 1457 1459 1460
1388 1382 1377 1368 1363 1364 1369 1369 1368 1371 1373 1377 1380 1384 1384 1386 1389 1391 1394 1397 1400 1403 1406 1408 1410 1413 1415 1418 1420 1422 1425 1427 1430 1433 1436 1439 1441 1444 1446 1449 1450 1452 1453 1455
1384 1378 1372 1357 1354 1354 1365 1367 1359 1363 1366 1371 1377 1383 1375 1378 1382 1386 1389 1393 1396 1398 1401 1404 1406 1409 1411 1413 1416 1418 1421 1424 1427 1429 1432 1434 1437 1439 1442 1444 1445 1447 1448 1449
1377 1372 1361 1350 1347 1352 1367 1355 1348 1353 1356 1361 1365 1364 1366 1372 1376 1380 1384 1387 1391 1394 1396 1399 1402 1405 1407 1410 1412 1415 1418 1421 1423 1426 1428 1431 1433 1435 1437 1439 1440 1442 1443 1444
1367 1367 1358 1342 1345 1347 1343 1341 1342 1343 1346 1351 1353 1357 1362 1366 1370 1374 1378 1382 1386 1389 1392 1396 1399 1401 1404 1406 1409 1412 1415 1417 1420 1422 1425 1427 1429 1431 1432 1434 1435 1436 1437 1438
1349 1345 1337 1335 1336 1335 1337 1338 1339 1340 1341 1345 1348 1352 1355 1360 1364 1369 1373 1377 1381 1385 1388 1392 1395 1398 1401 1404 1406 1409 1411 1414 1416 1419 1421 1423 1425 1426 1428 1429 1430 1431 1432 1432
1344 1338 1335 1333 1333 1333 1334 1335 1336 1337 1339 1341 1344 1347 1351 1355 1360 1364 1369 1373 1377 1381 1385 1389 1392 1396 1399 1401 1404 1406 1409 1411 1413 1415 1417 1419 1421 1422 1423 1424 1425 1426 1426 1427
1337 1333 1331 1330 1329 1331 1332 1333 1334 1335 1337 1338 1341 1344 1348 1351 1356 1361 1365 1370 1374 1378 1382 1386 1390 1393 1396 1399 1401 1403 1406 1408 1410 1412 1414 1416 1417 1419 1419 1420 1421 1421 1421 1422
1330 1328 1330 1328 1327 1328 1330 1331 1332 1333 1335 1337 1339 1342 1346 1350 1354 1358 1363 1368 1372 1376 1380 1384 1387 1391 1394 1396 1399 1401 1403 1405 1407 1409 1411 1412 1414 1415 1416 1417 1417 1417 1417 1417
1322 1323 1324 1324 1325 1326 1327 1328 1330 1331 1333 1335 1338 1341 1344 1348 1353 1357 1362 1366 1370 1374 1378 1382 1385 1389 1391 1394 1396 1398 1400 1402 1404 1406 1408 1409 1410 1410 1411 1412 1413 1412 1412 1412
1317 1319 1319 1319 1321 1322 1324 1326 1327 1329 1332 1334 1337 1340 1344 1348 1352 1356 1361 1365 1369 1373 1377 1380 1384 1387 1389 1392 1394 1396 1398 1400 1402 1403 1404 1405 1406 1406 1407 1407 1407 1407 1407 1406
1312 1313 1314 1314 1316 1318 1320 1322 1325 1327 1330 1333 1336 1339 1343 1346 1351 1355 1360 1364 1368 1372 1375 1378 1382 1385 1387 1389 1392 1394 1395 1397 1398 1399 1400 1401 1402 1402 1402 1402 1402 1401 1401 1400
1306 1308 1309 1310 1312 1314 1316 1319 1321 1324 1328 1331 1334 1338 1342 1346 1350 1355 1359 1363 1367 1370 1373 1376 1380 1382 1385 1387 1389 1391 1392 1394 1395 1396 1396 1397 1397 1397 1397 1397 1396 1395 1395 1394
1303 1303 1305 1306 1308 1310 1313 1315 1318 1321 1325 1329 1332 1336 1341 1345 1350 1354 1358 1363 1366 1369 1372 1375 1378 1381 1383 1385 1387 1388 1389 1390 1391 1392 1392 1392 1392 1392 1392 1392 1391 1390 1389 1388
1298 1299 1300 1302 1304 1307 1310 1313 1316 1320 1323 1327 1331 1335 1339 1343 1348 1352 1357 1361 1365 1368 1371 1374 1376 1379 1380 1382 1383 1385 1385 1386 1387 1387 1388 1388 1388 1388 1387 1386 1385 1384 1383 1382
1293 1295 1297 1299 1301 1304 1307 1310 1313 1317 1321 1325 1330 1334 1338 1343 1347 1352 1356 1360 1363 1366 1369 1372 1374 1376 1378 1379 1380 1381 1382 1382 1383 1383 1383 1383 1383 1382 1382 1381 1380 1379 1377 1376
1290 1292 1294 1296 1299 1302 1305 1308 1311 1315 1320 1324 1329 1333 1337 1342 1347 1351 1355 1358 1362 1364 1367 1370 1372 1373 1375 1376 1377 1377 1378 1378 1378 1378 1378 1378 1377 1377 1376 1375 1374 1372 1371 1369
1287 1289 1292 1294 1297 1300 1304 1307 1310 1314 1319 1323 1328 1332 1336 1341 1346 1350 1353 1357 1361 1363 1365 1367 1369 1371 1372 1372 1373 1373 1374 1374 1374 1373 1373 1372 1372 1371 1370 1369 1367 1366 1364 1362
1285 1288 1290 1293 1296 1299 1303 1307 1310 1314 1318 1323 1328 1332 1336 1341 1345 1349 1353 1356 1359 1361 1363 1365 1366 1367 1368 1369 1369 1369 1369 1369 1369 1368 1368 1367 1366 1365 1364 1362 1361 1359 1358 1356
1285 1287 1290 1293 1296 1299 1303 1308 1312 1315 1319 1324 1328 1333 1337 1341 1345 1348 1351 1355 1357 1359 1361 1362 1363 1364 1364 1365 1365 1365 1365 1364 1364 1363 1362 1361 1360 1359 1357 1356 1354 1352 1350 1348
1285 1288 1291 1294 1297 1300 1305 1310 1314 1318 1322 1326 1330 1334 1338 1341 1345 1349 1351 1353 1355 1357 1358 1359 1360 1361 1361 1361 1361 1360 1360 1359 1359 1358 1357 1355 1354 1353 1351 1349 1347 1345 1343 1341
1288 1290 1293 1296 1299 1303 1307 1312 1316 1320 1324 1328 1332 1336 1340 1343 1345 1348 1351 1352 1354 1355 1356 1357 1357 1358 1358 1357 1357 1356 1355 1354 1353 1352 1350 1349 1347 1346 1344 1342 1339 1337 1335 1333
1292 1295 1298 1300 1304 1307 1311 1315 1318 1322 1325 1330 1334 1338 1341 1344 1346 1348 1350 1351 1352 1353 1354 1354 1354 1354 1354 1353 1352 1351 1350 1349 1347 1346 1344 1342 1340 1338 1336 1333 1331 1329 1326 1324
1297 1299 1302 1306 1309 1313 1315 1318 1321 1325 1329 1332 1336 1339 1342 1344 1346 1347 1349 1350 1351 1351 1351 1351 1351 1351 1350 1349 1348 1346 1345 1343 1341 1339 1337 1335 1332 1330 1328 1325 1323 1320 1318 1316